Location: Unspecified
(50.7693°N, 0.0000°E)
Time: 05:52:06
(UTC+00:00)

Transit 2A - Pass Details

Date: 16 August 2020
Orbit: 591 x 967 km, 66.7° (Epoch: 20 September)

Event Time Altitude Azimuth Distance (km) Brightness Sun altitude
Rises 20:47:16 0° 257° (WSW) 3,508 10.0 -12.9°
Reaches altitude 10° 20:50:02 10° 268° (W) 2,616 9.4 -13.2°
Maximum altitude 20:55:27 31° 330° (NNW) 1,608 8.4 -13.8°
Drops below altitude 10° 21:01:05 10° 31° (NNE) 2,717 9.0 -14.5°
Sets 21:04:00 0° 41° (NE) 3,664 9.6 -14.8°
